Weather History for Ajaccio, France

Change the Weather History Date:

Friday, June 28, 2013

  Actual Average Record
Temperature  
Mean Temperature 66 °F -  
Max Temperature 78 °F 80 °F 91 °F (2006)
Min Temperature 54 °F 61 °F 54 °F (2013)
Cooling Degree Days 1    
Growing Degree Days 16 (Base 50)    
Moisture  
Dew Point 54 °F    
Average Humidity 64    
Maximum Humidity 88    
Minimum Humidity 36    
Precipitation  
Precipitation 0.00 in 0.02 in - ()
Sea Level Pressure  
Sea Level Pressure 30.02 in    
Wind  
Wind Speed 6 mph ()    
Max Wind Speed 15 mph    
Max Gust Speed -    
Visibility 6.8 miles    
Events Rain    
Averages and records for this station are not official NWS values.
T = Trace of Precipitation, MM = Missing Value Source: Averaged Metar Reports

Daily Weather History Graph

Daily Weather History Graph

Search for Another Location

Airport:

Trip Planner

Search our weather history database for the weather conditions in past years. The results will help you decide how hot, cold, wet, or windy it might be!

Date:

Astronomy

Jun. 28, 2013 Rise Set
Actual Time 5:51 AM CEST 9:04 PM CEST
Civil Twilight 5:17 AM CEST 9:38 PM CEST
Nautical Twilight 4:33 AM CEST 10:22 PM CEST
Astronomical Twilight 3:40 AM CEST 11:15 PM CEST
Moon No Moon Rise 11:47 AM CEST (6/28)
Length of Visible Light 16h 20m
Length of Day
15h 12m
Waning Gibbous, 69% of the Moon is Illuminated
Jun 28
Waning Gibbous
Jun 30
Last Quarter
Jul 8
New
Jul 16
First Quarter
Jul 22
Full

Hourly Weather History & Observations

Time (CEST) Temp. Dew Point Humidity Pressure Visibility Wind Dir Wind Speed Gust Speed Precip Events Conditions
12:00 AM 60.8 °F 57.2 °F 88% 30.04 in 6.2 mi Variable 3.5 mph - N/A   Scattered Clouds
1:00 AM 59.0 °F 55.4 °F 88% 30.04 in 6.2 mi East 5.8 mph - N/A   Scattered Clouds
1:30 AM 59.0 °F 53.6 °F 82% 30.04 in 6.2 mi East 5.8 mph - N/A   Unknown
2:00 AM 58 °F 54 °F 82% 30.06 in 25 mi ENE 4.6 mph - -   Clear
2:00 AM 57.2 °F 53.6 °F 88% 30.04 in 6.2 mi ENE 4.6 mph - N/A   Unknown
2:30 AM 55.4 °F 51.8 °F 88% 30.04 in 6.2 mi ENE 6.9 mph - N/A   Unknown
3:00 AM 57.2 °F 53.6 °F 88% 30.04 in 6.2 mi ENE 6.9 mph - N/A   Unknown
3:30 AM 57.2 °F 50.0 °F 77% 30.01 in 6.2 mi NE 9.2 mph - N/A   Unknown
4:00 AM 57.2 °F 51.8 °F 82% 30.01 in 6.2 mi NE 4.6 mph - N/A   Unknown
4:30 AM 57.2 °F 53.6 °F 88% 30.01 in 6.2 mi NE 6.9 mph - N/A   Unknown
5:00 AM 55.4 °F 51.8 °F 88% 30.01 in 6.2 mi NE 6.9 mph - N/A   Unknown
5:30 AM 55.4 °F 51.8 °F 88% 30.01 in 6.2 mi NE 8.1 mph - N/A   Unknown
6:00 AM 55.4 °F 51.8 °F 88% 30.01 in 6.2 mi NE 8.1 mph - N/A   Unknown
6:30 AM 55.4 °F 51.8 °F 88% 30.01 in 6.2 mi NE 5.8 mph - N/A   Unknown
7:00 AM 57.2 °F 51.8 °F 82% 30.01 in 6.2 mi NE 6.9 mph - N/A   Partly Cloudy
7:30 AM 59.0 °F 51.8 °F 77% 30.01 in 6.2 mi NE 6.9 mph - N/A   Partly Cloudy
8:00 AM 63 °F 52 °F 58% 30.03 in 16 mi NE 5.8 mph - -   Scattered Clouds
8:00 AM 62.6 °F 51.8 °F 68% 30.01 in 6.2 mi NE 5.8 mph - N/A   Partly Cloudy
8:30 AM 66.2 °F 51.8 °F 60% 30.01 in 6.2 mi NE 4.6 mph - N/A   Partly Cloudy
9:00 AM 69.8 °F 50.0 °F 49% 30.01 in 6.2 mi Variable 2.3 mph - N/A   Partly Cloudy
9:30 AM 69.8 °F 53.6 °F 56% 30.01 in 6.2 mi Variable 3.5 mph - N/A   Partly Cloudy
10:00 AM 69.8 °F 53.6 °F 56% 30.01 in 6.2 mi SW 5.8 mph - N/A   Partly Cloudy
10:30 AM 71.6 °F 57.2 °F 60% 30.01 in 6.2 mi SW 6.9 mph - N/A   Partly Cloudy
11:00 AM 71.6 °F 57.2 °F 60% 30.01 in 6.2 mi SW 9.2 mph - N/A   Partly Cloudy
11:30 AM 73.4 °F 57.2 °F 57% 30.01 in 6.2 mi South 9.2 mph - N/A   Partly Cloudy
12:00 PM 75.2 °F 59.0 °F 57% 30.01 in 6.2 mi SSW 8.1 mph - N/A   Partly Cloudy
12:30 PM 75.2 °F 60.8 °F 61% 30.04 in 6.2 mi SW 15.0 mph - N/A   Partly Cloudy
1:00 PM 77.0 °F 59.0 °F 54% 30.01 in 6.2 mi South 11.5 mph - N/A   Partly Cloudy
1:30 PM 77.0 °F 55.4 °F 47% 30.01 in 6.2 mi SW 4.6 mph - N/A   Mostly Cloudy
2:00 PM 77 °F 55 °F 36% 30.02 in 16 mi SW 5.8 mph - -   Partly Cloudy
2:00 PM 77.0 °F 55.4 °F 47% 30.01 in 6.2 mi SW 5.8 mph - N/A   Mostly Cloudy
2:30 PM 77.0 °F 53.6 °F 44% 30.01 in 6.2 mi SW 8.1 mph - N/A   Mostly Cloudy
3:00 PM 78.8 °F 51.8 °F 39% 30.01 in 6.2 mi SSW 8.1 mph - N/A   Mostly Cloudy
3:30 PM 75.2 °F 50.0 °F 41% 30.01 in 6.2 mi West 10.4 mph - N/A   Mostly Cloudy
4:00 PM 75.2 °F 50.0 °F 41% 30.01 in 6.2 mi West 5.8 mph - N/A   Mostly Cloudy
4:30 PM 75.2 °F 50.0 °F 41% 30.01 in 6.2 mi WNW 10.4 mph - N/A   Mostly Cloudy
5:00 PM 75.2 °F 53.6 °F 47% 30.01 in 6.2 mi WNW 6.9 mph - N/A   Mostly Cloudy
5:30 PM 75.2 °F 51.8 °F 44% 30.01 in 6.2 mi Variable 2.3 mph - N/A   Mostly Cloudy
6:00 PM 73.4 °F 53.6 °F 50% 30.01 in 6.2 mi South 9.2 mph - N/A   Mostly Cloudy
6:30 PM 71.6 °F 53.6 °F 53% 30.01 in 6.2 mi NW 12.7 mph - N/A   Mostly Cloudy
7:00 PM 69.8 °F 53.6 °F 56% 30.01 in 6.2 mi NNW 3.5 mph - N/A Rain Light Rain
7:30 PM 71.6 °F 53.6 °F 53% 30.01 in 6.2 mi Variable 3.5 mph - N/A   Mostly Cloudy
8:00 PM 72 °F 53 °F 41% 30.05 in 12 mi WNW 4.6 mph - -   Partly Cloudy
8:00 PM 71.6 °F 51.8 °F 50% 30.04 in 6.2 mi NW 3.5 mph - N/A   Mostly Cloudy
8:30 PM 69.8 °F 55.4 °F 60% 30.04 in 6.2 mi WNW 11.5 mph - N/A   Mostly Cloudy
9:00 PM 68.0 °F 55.4 °F 64% 30.04 in 6.2 mi NW 8.1 mph - N/A   Mostly Cloudy
9:30 PM 68.0 °F 55.4 °F 64% 30.06 in 6.2 mi North 3.5 mph - N/A   Mostly Cloudy
10:00 PM 66.2 °F 55.4 °F 68% 30.06 in - ESE 3.5 mph - N/A   Clear
10:30 PM 66.2 °F 55.4 °F 68% 30.06 in - NE 4.6 mph - N/A   Clear
11:00 PM 62.6 °F 55.4 °F 77% 30.06 in - NE 4.6 mph - N/A   Clear
11:30 PM 60.8 °F 53.6 °F 77% 30.06 in - NE 5.8 mph - N/A   Clear